Skip Page Navigation
NASA JPL Caltech
NASA Logo - Jet Propulsion Laboratory + View the NASA Portal
+ Center for Near-Earth Object Studies
JPL Home Earth Solar System Stars & Galaxies Technology
JPL Solar System Dynamics
BODIES ORBITS EPHEMERIDES TOOLS PHYSICAL DATA DISCOVERY FAQ SITE MAP
JPL Small-Body Database Browser
Search: [ help ]  
(2016 HR6)
Classification: Amor [NEO]          SPK-ID: 3752515
Ephemeris | Orbit Diagram | Orbital Elements | Mission Design | Physical Parameters | Close-Approach Data ]

[ hide orbit diagram ]

For accurate long-term ephemerides, please instead use our Horizons system.This orbit viewer was implemented using two-body methods, and hence should not be used for determining accurate long-term trajectories (over several years or decades) or planetary encounter circumstances.


Orbital Elements at Epoch 2459396.5 (2021-Jul-01.0) TDB
Reference: JPL 14 (heliocentric ecliptic J2000)
 Element Value Uncertainty (1-sigma)   Units 
e .2173131188745785 5.8172e-05  
a 1.331195617677987 0.00010852 au
q 1.041909346168213 7.5015e-06 au
i 3.669517066929257 0.00076675 deg
node 198.0420308241528 0.0011731 deg
peri 39.27209941490003 0.0012197 deg
M 117.4786182371342 0.14696 deg
tp 2459213.429834246728
(2020-Dec-29.92983425)
0.20663 TDB
period 560.9979131534046
1.54
0.068601
0.0001878
d
yr
n .6417136170372137 7.8471e-05 deg/d
Q 1.620481889187761 0.00013211 au
  Orbit Determination Parameters
   # obs. used (total)      43  
   data-arc span      77 days  
   first obs. used      2016-04-27  
   last obs. used      2016-07-13  
   planetary ephem.      DE441  
   SB-pert. ephem.      SB441-N16  
   condition code      6  
   norm. resid. RMS      .47259  
   source      ORB  
   producer      Otto Matic  
   solution date      2021-Apr-15 17:04:10  

Additional Information
 Earth MOID = .0481135 au 
 Jupiter MOID = 3.37456 au 
 T_jup = 4.894 
[ hide covariance matrix ]
Orbital Elements at Epoch 2457525.5 (2016-May-17.0) TDB
Reference: JPL 14 (heliocentric ecliptic J2000)
 Element Value Uncertainty (1-sigma)   Units 
e .2168554119870859 5.8612e-05  
q 1.041844871691677 7.3145e-06 au
tp 2457530.375072300643
(2016-May-21.87507230)
0.00091275 TDB
node 198.2622991098206 0.0012335 deg
peri 38.9141236352776 0.0013416 deg
i 3.675108553676003 0.00076686 deg
  Orbit Determination Parameters
   # obs. used (total)      43  
   data-arc span      77 days  
   first obs. used      2016-04-27  
   last obs. used      2016-07-13  
   planetary ephem.      DE441  
   SB-pert. ephem.      SB441-N16  
   condition code      6  
   norm. resid. RMS      .47259  
   source      ORB  
   producer      Otto Matic  
   solution date      2021-Apr-15 17:04:10  

Additional Information
 Jupiter MOID = 3.37456 au 
 T_jup = 4.894 
Orbit Covariance (6×6)
  e q tp node peri i
e 3.435395920243861E-9 4.286808775844282E-10 5.326217839030145E-8 -7.199301688953247E-8 7.796979143397389E-8 4.493895884703533E-8
q 4.286808775844282E-10 5.350180497154938E-11 6.642257808224037E-9 -8.979739110470212E-9 9.721139930164428E-9 5.608618468885884E-9
tp 5.326217839030145E-8 6.642257808224037E-9 8.331203998840327E-7 -1.121354396355526E-6 1.221283089706118E-6 6.960509769979889E-7
node -7.199301688953247E-8 -8.979739110470212E-9 -1.121354396355526E-6 1.521418509306522E-6 -1.651783324375228E-6 -9.405594152715258E-7
peri 7.796979143397389E-8 9.721139930164428E-9 1.221283089706118E-6 -1.651783324375228E-6 1.799793498206603E-6 1.018015822128238E-6
i 4.493895884703533E-8 5.608618468885884E-9 6.960509769979889E-7 -9.405594152715258E-7 1.018015822128238E-6 5.880756907750425E-7

Ephemeris | Orbit Diagram | Orbital Elements | Mission Design | Physical Parameters | Close-Approach Data ]

Physical Parameter Table
Parameter Symbol Value Units Sigma Reference Notes
absolute magnitude H 24.4   n/a MPO386978  

